Powrót do katalogu

FENGYUN 1C DEB

AktywnySSO
NORAD 30327·DEBRIS·🇨🇳 China

Wystrzelony May 10, 1999 z Taiyuan Satellite Launch Center

Loading…

Następne Przeloty (najbliższe 24 godziny)

TLE

ŚwieżeSource: Space-Track

Epoka: Sep 14, 2026, 03:59 UTC

1 30327U 99025AAN 26257.16641363  .00002542  00000-0  11343-2 0  9999
2 30327  98.4271 143.4129 0117815  64.1351  86.8587 14.19911586  3498

Śledź FENGYUN 1C DEB w czasie rzeczywistym z AllMySat

Download on the App Store